Weather History for KI35 - October, 2013

Change the Weather History Date:

Thursday, October 31, 2013

  Actual Average (KLOZ) Record (KLOZ)
Temperature  
Mean Temperature 61 °F 53 °F  
Max Temperature 69 °F 65 °F 81 °F (1984)
Min Temperature 53 °F 41 °F 24 °F (1980)
Degree Days  
Heating Degree Days 4 12  
Month to date heating degree days 260  
Since 1 July heating degree days 306  
Cooling Degree Days 0 0  
Month to date cooling degree days 21  
Growing Degree Days 11 (Base 50)    
Moisture  
Dew Point 53 °F    
Average Humidity 70    
Maximum Humidity 100    
Minimum Humidity 53    
Precipitation  
Precipitation 0.00 in 0.11 in 1.29 in (1956)
Month to date precipitation 3.02  
Sea Level Pressure  
Sea Level Pressure 29.95 in    
Wind  
Wind Speed 3 mph (South)    
Max Wind Speed 16 mph    
Max Gust Speed 43 mph    
Visibility 9 miles    
Events      
T = Trace of Precipitation, MM = Missing Value Source: NWS Daily Summary

Daily Weather History Graph

Daily Weather History Graph

Search for Another Location

Airport or City:

Trip Planner

Search our weather history database for the weather conditions in past years. The results will help you decide how hot, cold, wet, or windy it might be!

Date:

Astronomy

Oct. 31, 2013 Rise Set
Actual Time 7:56 AM EDT 6:37 PM EDT
Civil Twilight 7:29 AM EDT 7:03 PM EDT
Nautical Twilight 6:59 AM EDT 7:34 PM EDT
Astronomical Twilight 6:28 AM EDT 8:04 PM EDT
Moon 4:49 AM EDT (10/31) 4:51 PM EDT (10/31)
Length of Visible Light 11h 34m
Length of Day
10h 40m
Waning Crescent, 10% of the Moon is Illuminated
Oct 31
Waning Crescent
Nov 3
New
Nov 10
First Quarter
Nov 17
Full
Nov 25
Last Quarter

Hourly Weather History & Observations

Time (EDT) Temp. Dew Point Humidity Pressure Visibility Wind Dir Wind Speed Gust Speed Precip Events Conditions
12:15 AM 55.4 °F 53.6 °F 94% 30.16 in 2.0 mi Calm Calm - N/A   Clear
12:35 AM 55.4 °F 53.6 °F 94% 30.16 in 1.5 mi Calm Calm - N/A   Mostly Cloudy
12:55 AM 53.6 °F 53.6 °F 100% 30.15 in 0.8 mi Calm Calm - N/A   Mostly Cloudy
1:15 AM 55.4 °F 53.6 °F 94% 30.15 in 2.5 mi SSW 3.5 mph - N/A   Mostly Cloudy
1:35 AM 55.4 °F 53.6 °F 94% 30.15 in 2.5 mi South 3.5 mph - N/A   Overcast
1:55 AM 55.4 °F 53.6 °F 94% 30.15 in 2.5 mi Calm Calm - N/A   Mostly Cloudy
2:15 AM 55.4 °F 53.6 °F 94% 30.14 in 3.0 mi Calm Calm - N/A   Mostly Cloudy
2:35 AM 55.4 °F 53.6 °F 94% 30.13 in 3.0 mi South 3.5 mph - N/A   Mostly Cloudy
2:55 AM 55.4 °F 53.6 °F 94% 30.13 in 4.0 mi Calm Calm - N/A   Scattered Clouds
3:15 AM 55.4 °F 53.6 °F 94% 30.12 in 4.0 mi ESE 4.6 mph - N/A   Scattered Clouds
3:35 AM 57.2 °F 53.6 °F 88% 30.11 in 10.0 mi Calm Calm - N/A   Clear
3:55 AM 57.2 °F 53.6 °F 88% 30.10 in 10.0 mi Calm Calm - N/A   Clear
4:15 AM 57.2 °F 53.6 °F 88% 30.09 in 10.0 mi Calm Calm - N/A   Clear
4:35 AM 57.2 °F 53.6 °F 88% 30.09 in 10.0 mi Calm Calm - N/A   Clear
4:55 AM 59.0 °F 53.6 °F 82% 30.08 in 10.0 mi Calm Calm - N/A   Clear
5:15 AM 59.0 °F 53.6 °F 82% 30.08 in 10.0 mi Calm Calm - N/A   Clear
5:35 AM 59.0 °F 53.6 °F 82% 30.08 in 10.0 mi WSW 6.9 mph - N/A   Clear
5:55 AM 60.8 °F 53.6 °F 77% 30.08 in 10.0 mi Calm Calm - N/A   Clear
6:15 AM 60.8 °F 53.6 °F 77% 30.09 in 10.0 mi Calm Calm - N/A   Clear
6:35 AM 60.8 °F 53.6 °F 77% 30.08 in 10.0 mi Calm Calm - N/A   Mostly Cloudy
6:55 AM 60.8 °F 53.6 °F 77% 30.09 in 10.0 mi Calm Calm - N/A   Scattered Clouds
7:15 AM 62.6 °F 53.6 °F 72% 30.09 in 10.0 mi SSW 5.8 mph - N/A   Scattered Clouds
7:35 AM 62.6 °F 51.8 °F 68% 30.08 in 10.0 mi SW 4.6 mph - N/A   Scattered Clouds
7:55 AM 62.6 °F 51.8 °F 68% 30.07 in 10.0 mi West 6.9 mph - N/A   Scattered Clouds
8:15 AM 64.4 °F 51.8 °F 64% 30.06 in 10.0 mi ESE 3.5 mph - N/A   Mostly Cloudy
8:35 AM 64.4 °F 51.8 °F 64% 30.05 in 10.0 mi Calm Calm - N/A   Overcast
8:55 AM 64.4 °F 51.8 °F 64% 30.05 in 10.0 mi SSE 3.5 mph - N/A   Mostly Cloudy
9:15 AM 62.6 °F 51.8 °F 68% 30.04 in 10.0 mi SSE 3.5 mph - N/A   Scattered Clouds
9:35 AM 62.6 °F 51.8 °F 68% 30.03 in 10.0 mi Calm Calm - N/A   Clear
9:55 AM 64.4 °F 51.8 °F 64% 30.02 in 10.0 mi SE 5.8 mph - N/A   Clear
10:15 AM 64.4 °F 51.8 °F 64% 30.01 in 10.0 mi SSE 6.9 mph - N/A   Clear
10:35 AM 64.4 °F 51.8 °F 64% 30.01 in 10.0 mi SSE 8.1 mph - N/A   Mostly Cloudy
10:55 AM 64.4 °F 51.8 °F 64% 30.01 in 10.0 mi SSE 4.6 mph 16.1 mph N/A   Overcast
11:15 AM 64.4 °F 51.8 °F 64% 30.01 in 10.0 mi Calm Calm - N/A   Mostly Cloudy
11:35 AM 64.4 °F 51.8 °F 64% 30.01 in 10.0 mi SSE 4.6 mph - N/A   Scattered Clouds
11:55 AM 64.4 °F 51.8 °F 64% 30.01 in 10.0 mi Calm Calm - N/A   Mostly Cloudy
12:15 PM 62.6 °F 53.6 °F 72% 30.01 in 10.0 mi SSE 5.8 mph - N/A   Overcast
12:35 PM 62.6 °F 53.6 °F 72% 30.01 in 10.0 mi SSE 3.5 mph - N/A   Overcast
1:15 PM 60.8 °F 55.4 °F 82% 29.96 in 10.0 mi Calm Calm - N/A   Overcast
1:35 PM 60.8 °F 53.6 °F 77% 29.95 in 10.0 mi Calm Calm - N/A   Mostly Cloudy
1:55 PM 62.6 °F 53.6 °F 72% 29.95 in 10.0 mi Calm Calm - N/A   Scattered Clouds
2:15 PM 62.6 °F 53.6 °F 72% 29.93 in 10.0 mi SSE 4.6 mph - N/A   Scattered Clouds
2:35 PM 64.4 °F 53.6 °F 68% 29.91 in 10.0 mi Calm Calm - N/A   Mostly Cloudy
2:55 PM 64.4 °F 53.6 °F 68% 29.90 in 10.0 mi SSE 4.6 mph - N/A   Overcast
3:15 PM 64.4 °F 53.6 °F 68% 29.89 in 10.0 mi SSE 3.5 mph - N/A   Overcast
3:35 PM 64.4 °F 51.8 °F 64% 29.88 in 10.0 mi SSE 4.6 mph - N/A   Overcast
3:55 PM 64.4 °F 53.6 °F 68% 29.87 in 10.0 mi SSE 5.8 mph - N/A   Overcast
4:15 PM 66.2 °F 51.8 °F 60% 29.86 in 10.0 mi SE 6.9 mph - N/A   Overcast
4:35 PM 68.0 °F 51.8 °F 56% 29.85 in 10.0 mi SE 4.6 mph - N/A   Overcast
4:55 PM 66.2 °F 53.6 °F 64% 29.83 in 10.0 mi SSE 9.2 mph - N/A   Overcast
5:15 PM 68.0 °F 53.6 °F 60% 29.83 in 10.0 mi SSE 6.9 mph - N/A   Overcast
5:35 PM 68.0 °F 53.6 °F 60% 29.82 in 10.0 mi SE 4.6 mph - N/A   Overcast
5:55 PM 68.0 °F 53.6 °F 60% 29.82 in 10.0 mi SSW 8.1 mph 17.3 mph N/A   Overcast
6:15 PM 68.0 °F 53.6 °F 60% 29.80 in 10.0 mi SSW 6.9 mph 16.1 mph N/A   Overcast
6:35 PM 69.8 °F 53.6 °F 56% 29.80 in 10.0 mi SSW 9.2 mph 18.4 mph N/A   Overcast
6:55 PM 69.8 °F 51.8 °F 53% 29.80 in 10.0 mi South 8.1 mph 18.4 mph N/A   Overcast
7:15 PM 69.8 °F 51.8 °F 53% 29.79 in 10.0 mi SSE 6.9 mph 20.7 mph N/A   Overcast
7:35 PM 69.8 °F 51.8 °F 53% 29.79 in 10.0 mi SSE 5.8 mph - N/A   Overcast
7:55 PM 69.8 °F 51.8 °F 53% 29.79 in 10.0 mi SE 8.1 mph - N/A   Overcast
8:15 PM 69.8 °F 51.8 °F 53% 29.77 in 10.0 mi South 9.2 mph 16.1 mph N/A   Overcast
8:35 PM 68.0 °F 53.6 °F 60% 29.75 in 10.0 mi South 10.4 mph 24.2 mph N/A   Overcast
8:55 PM 69.8 °F 53.6 °F 56% 29.74 in 10.0 mi South 8.1 mph 42.6 mph N/A   Overcast
9:15 PM 69.8 °F 53.6 °F 56% 29.71 in 10.0 mi South 16.1 mph 25.3 mph N/A   Mostly Cloudy
9:35 PM 69.8 °F 53.6 °F 56% 29.67 in 10.0 mi SSE 15.0 mph 27.6 mph N/A   Scattered Clouds
9:55 PM 69.8 °F 53.6 °F 56% 29.67 in 10.0 mi South 10.4 mph 24.2 mph N/A   Mostly Cloudy
10:15 PM 69.8 °F 53.6 °F 56% 29.68 in 10.0 mi South 10.4 mph 24.2 mph N/A   Overcast
10:35 PM 69.8 °F 55.4 °F 60% 29.69 in 10.0 mi SSW 9.2 mph 19.6 mph N/A   Overcast
10:55 PM 69.8 °F 55.4 °F 60% 29.69 in 10.0 mi South 9.2 mph - N/A   Overcast
11:15 PM 69.8 °F 55.4 °F 60% 29.69 in 10.0 mi SSW 6.9 mph - N/A   Overcast
11:35 PM 69.8 °F 55.4 °F 60% 29.68 in 10.0 mi South 9.2 mph 23.0 mph N/A   Overcast
11:55 PM 69.8 °F 55.4 °F 60% 29.67 in 10.0 mi South 12.7 mph 26.5 mph N/A   Overcast